Presure
161 155 153 173 187 149 190 192 179 180 175 178 173 187 178 184 186 186 187 165 195 191 209 243 208 250 274 319 377 334 322 301 307 310 321 309 304 312 332 364 411 332 285
154 169 171 177 171 192 190 185 181 176 182 179 188 182 184 186 163 168 200 197 175 205 231 265 252 267 332 389 324 304 293 306 310 307 306 298 293 306 324 399 422 350 304
173 173 171 187 175 195 191 182 180 183 185 176 181 187 174 180 189 204 205 111 236 230 245 260 344 385 381 319 301 288 287 282 288 292 296 305 295 293 317 353 340 353 311
181 188 191 176 178 191 191 180 182 181 178 178 185 186 187 201 187 211 178 198 202 240 231 311 389 379 317 295 285 289 278 278 276 286 296 297 291 300 311 364 413 348 317
192 190 182 183 186 195 194 182 186 178 186 178 198 192 190 193 176 213 227 194 250 257 242 400 365 317 293 289 291 277 275 293 300 302 321 309 290 299 318 432 351 319 315
190 191 177 182 200 192 185 188 172 193 187 195 191 181 196 206 204 222 175 210 259 301 402 367 312 297 289 282 268 267 282 298 304 339 328 304 294 305 328 380 461 303 306
202 186 188 202 199 193 190 182 192 184 192 199 176 205 196 212 185 195 213 239 252 379 364 314 300 283 279 266 255 267 301 316 340 320 311 294 294 308 333 426 316 296 291
190 193 193 202 200 193 187 193 176 199 194 199 200 193 219 216 241 209 244 205 277 369 321 294 291 281 261 261 254 258 259 290 324 319 318 302 311 318 358 392 319 300 292
194 187 203 199 193 202 196 193 200 191 200 208 215 210 233 226 230 202 245 237 309 347 301 279 282 271 265 251 253 264 258 263 289 316 305 308 311 386 372 351 351 307 291
197 206 205 193 191 202 185 200 193 202 211 219 219 223 215 232 228 231 228 275 308 320 296 271 277 273 252 235 242 237 244 259 293 300 326 338 327 334 335 333 349 308 298
206 203 202 197 203 192 206 201 201 204 214 225 212 226 228 217 239 215 276 274 341 295 290 307 276 264 253 243 234 237 259 262 289 301 294 314 308 328 327 315 309 329 304
203 203 204 197 203 204 202 194 211 208 215 202 211 216 236 244 210 271 257 290 325 290 286 293 266 262 252 240 232 235 247 248 248 236 269 271 276 285 308 321 331 336 335
205 199 211 207 205 205 200 212 201 213 222 217 226 205 218 226 214 277 295 337 308 281 279 273 266 245 251 248 231 228 230 233 237 236 259 232 255 262 291 312 308 279 286
211 208 208 205 203 213 213 212 212 212 203 220 229 244 228 230 274 311 287 323 307 289 277 274 262 251 246 231 239 229 221 218 226 223 232 234 230 244 237 240 250 250 238
206 206 202 213 215 211 205 216 223 224 210 218 235 219 238 252 274 306 319 326 295 285 274 266 267 257 238 245 241 229 225 215 222 216 220 209 227 231 242 241 226 232 239
210 216 209 200 208 222 220 223 222 227 224 222 231 237 250 275 283 283 345 323 301 274 265 259 250 253 252 234 240 232 228 229 216 221 215 215 227 217 227 216 234 228 223
220 194 211 203 216 210 231 213 224 222 229 226 235 238 250 269 301 287 340 327 298 271 261 258 247 250 264 246 241 238 228 225 235 222 224 223 214 216 220 211 220 226 211
209 210 201 208 210 209 215 213 228 224 222 223 244 236 260 282 308 320 327 326 306 289 266 252 252 244 242 252 247 239 234 229 231 226 227 221 224 221 214 206 217 210 208
208 205 210 216 217 212 222 222 230 224 219 230 249 277 269 297 283 312 322 315 307 301 267 253 259 251 238 247 240 249 244 238 230 225 216 225 228 204 223 224 224 207 209
215 212 209 217 220 215 226 220 225 224 234 240 257 283 325 264 318 310 308 317 300 292 282 260 249 251 248 242 242 238 234 240 250 247 245 236 223 243 231 231 256 249 248
230 215 223 217 226 227 235 223 231 248 252 292 289 249 324 316 304 303 300 302 294 304 308 289 258 245 250 248 242 237 247 238 229 230 229 242 242 237 234 232 227 233 229
225 229 234 222 235 229 234 239 256 257 288 272 297 316 307 307 306 303 303 307 303 298 297 290 307 280 261 246 247 241 239 236 242 237 230 232 230 226 227 228 230 227 215
226 227 217 235 232 236 239 257 271 265 274 328 326 315 303 295 295 298 295 304 303 310 295 317 326 315 297 291 263 253 245 247 237 239 241 241 231 231 235 234 234 232 230
229 226 236 223 256 256 259 282 266 302 320 318 312 305 291 290 290 293 293 295 309 308 313 313 338 391 327 338 309 308 268 259 254 244 246 238 239 238 235 228 225 226 227
241 243 226 256 269 294 277 288 336 328 316 314 303 294 294 293 291 292 296 302 300 304 320 377 356 356 357 412 411 334 344 316 289 257 267 261 251 253 247 241 236 231 232
249 273 299 291 284 316 320 332 320 308 303 305 304 299 298 294 302 296 296 296 315 342 351 337 335 322 315 391 403 364 391 378 352 325 313 299 271 263 263 262 257 257 259
Wind_Speed
97 91 91 97 93 88 94 90 88 89 87 88 88 94 90 96 95 97 101 100 112 111 123 123 116 129 121 119 59 57 56 59 52 44 49 43 48 50 47 55 88 96 108
93 95 97 96 94 95 92 88 88 88 90 90 94 91 93 95 94 92 109 112 101 103 120 129 121 121 118 55 56 58 59 49 50 47 49 43 45 51 46 50 66 84 97
98 95 97 97 95 95 91 88 88 90 92 90 91 94 90 97 99 110 110 43 115 113 115 124 118 71 49 50 51 55 52 53 53 53 50 43 49 48 46 46 56 81 88
97 97 94 95 94 93 92 87 90 90 91 91 96 93 94 107 103 112 97 100 100 109 119 126 56 49 43 45 50 48 51 53 55 59 58 46 50 50 45 43 63 71 81
97 94 95 94 93 92 92 88 92 89 96 93 98 95 99 106 103 114 111 104 115 120 115 50 45 39 40 44 39 45 49 52 54 59 57 48 51 49 45 40 69 68 84
94 93 94 94 94 90 88 92 86 95 93 97 91 91 105 112 109 107 101 114 115 126 43 42 40 39 39 33 39 47 49 49 58 45 29 29 46 42 38 36 51 69 84
93 92 94 95 91 90 92 88 95 87 93 98 91 107 101 108 86 105 105 111 108 61 38 36 40 36 28 35 42 45 35 46 36 31 26 31 35 34 32 29 72 75 80
91 93 92 92 91 90 89 94 83 92 95 98 103 98 110 99 115 95 112 109 115 44 32 38 36 26 32 30 37 39 40 30 27 26 23 24 29 32 30 36 74 81 84
93 89 94 91 88 92 93 91 92 91 100 105 108 101 111 104 100 101 111 94 94 41 36 35 31 24 23 29 31 32 34 27 30 18 16 20 21 24 31 37 56 91 88
93 93 91 88 86 91 84 91 92 100 102 110 102 106 96 109 99 101 104 118 77 37 35 39 33 18 26 34 26 29 35 21 25 23 16 14 16 14 17 25 40 82 85
92 90 91 89 91 86 95 94 97 98 102 109 97 109 108 89 111 99 114 98 40 34 36 28 26 19 18 22 28 28 27 24 21 17 21 3 3 13 22 31 39 40 76
90 91 93 87 93 94 94 88 97 92 104 88 98 92 111 114 88 122 97 91 36 35 37 23 23 20 19 19 24 25 25 25 19 9 29 29 24 17 3 12 17 28 39
92 88 96 94 94 97 92 98 89 101 104 101 105 90 91 92 92 106 93 40 39 41 33 25 24 26 22 16 23 20 21 24 16 15 20 6 22 18 6 5 16 20 12
95 93 95 93 92 99 97 99 101 95 88 104 109 120 91 91 124 101 91 41 40 38 31 25 26 26 28 31 21 18 26 23 20 18 8 5 7 7 16 13 18 26 33
90 89 85 98 98 96 92 102 103 103 92 98 117 90 113 123 118 90 63 39 39 35 31 26 28 30 32 30 27 26 24 28 20 23 21 17 9 12 24 27 25 27 28
90 94 87 82 90 106 102 103 99 106 103 101 110 116 119 122 110 84 42 39 40 39 33 31 31 32 36 35 34 34 32 32 30 28 28 28 23 23 24 24 35 35 34
94 73 90 86 101 94 107 90 104 99 110 102 117 119 124 124 97 91 39 40 41 45 42 39 37 34 32 37 40 40 41 37 38 37 37 37 36 35 34 31 36 39 34
81 90 82 88 91 90 97 92 113 105 97 99 134 111 126 97 84 45 42 39 42 44 48 44 43 41 40 39 41 44 45 44 46 42 42 43 44 44 42 40 46 43 43
88 85 89 98 100 90 101 103 117 107 97 117 131 107 110 87 69 47 40 43 40 40 51 52 49 47 46 45 44 43 49 50 51 48 44 48 50 44 50 54 58 52 53
92 93 88 98 99 91 110 95 104 99 121 128 125 101 50 88 41 40 40 41 46 42 45 56 55 54 53 53 49 50 48 48 48 50 53 57 52 55 56 55 52 55 58
110 96 106 92 105 110 120 98 116 129 115 95 93 94 43 45 50 48 47 44 43 42 45 48 62 59 61 60 60 56 57 55 52 52 52 50 51 53 55 54 56 53 52
102 108 111 95 116 110 118 129 132 134 93 90 68 54 52 49 46 49 48 47 50 51 49 47 48 61 71 68 67 65 63 60 62 61 60 59 60 60 59 60 61 63 64
103 104 83 117 106 113 114 126 110 87 90 48 43 46 50 52 51 52 51 51 50 50 48 49 48 52 56 67 77 78 72 72 68 67 68 69 67 66 68 68 69 69 70
107 96 115 80 128 118 122 85 96 67 48 45 45 45 51 54 56 56 56 53 55 50 50 48 54 44 53 54 62 68 80 82 82 76 79 74 75 75 75 73 71 72 75
121 123 77 113 112 78 85 74 39 41 43 44 46 49 52 56 55 55 55 56 52 51 56 42 39 37 35 28 33 55 62 68 79 84 86 89 86 90 88 86 83 81 81
120 102 75 78 79 54 43 35 36 39 43 45 48 51 54 55 56 52 51 49 54 49 35 34 33 31 29 22 22 33 36 43 56 67 72 80 88 91 91 93 96 96 97
Wind_Direction
290 294 296 299 302 300 302 303 304 305 307 306 305 307 306 308 306 308 310 305 305 302 305 305 311 307 305 306 292 296 295 295 295 290 283 271 267 262 259 250 227 230 234
289 292 294 297 299 300 301 302 303 304 305 304 306 305 307 308 301 312 310 307 304 307 305 315 304 307 305 290 296 298 295 296 296 292 283 276 271 271 265 259 234 212 220
288 292 294 297 299 298 300 301 303 303 303 302 304 307 302 309 309 311 311 293 311 310 314 312 309 297 291 297 298 296 293 295 300 300 293 282 270 267 267 263 237 209 211
289 291 292 294 297 298 298 300 299 301 300 303 304 304 307 312 308 312 309 313 308 312 304 312 295 292 297 299 294 295 295 299 297 294 286 278 275 267 269 266 220 211 204
288 289 290 292 295 295 295 297 299 299 300 301 303 307 308 310 305 312 312 314 317 318 311 298 296 302 303 296 299 300 302 298 293 286 280 267 266 268 269 240 207 210 203
285 287 288 292 291 292 295 296 296 298 300 303 304 301 309 312 310 311 310 304 325 321 300 294 295 303 302 303 303 308 313 303 298 288 269 253 256 267 274 242 220 198 206
284 286 288 289 290 292 294 295 295 298 301 306 295 307 309 309 311 312 304 317 319 310 296 299 303 307 305 307 307 318 326 309 292 279 260 255 266 271 255 225 188 197 207
283 285 287 288 289 291 293 293 297 299 303 306 307 307 309 310 316 313 324 310 328 301 294 301 300 301 296 309 314 319 321 353 297 274 268 267 275 266 233 196 195 199 205
283 285 286 287 290 290 293 296 301 301 304 304 304 306 311 316 316 316 324 316 325 291 296 299 290 289 298 304 318 319 323 343 360 302 301 283 264 223 218 211 197 201 208
282 284 285 288 289 293 292 298 299 302 302 305 308 310 309 318 318 318 311 326 320 286 289 291 282 277 289 300 305 312 309 338 8 353 307 187 203 196 186 185 204 207 208
281 282 284 288 292 292 296 298 300 300 307 307 307 308 317 309 321 309 324 329 289 283 287 284 273 264 274 286 295 306 319 347 7 26 36 9 347 172 183 197 209 211 215
281 284 286 290 291 293 296 295 299 302 303 300 306 310 318 322 307 322 326 327 276 276 282 266 267 261 266 278 288 309 325 337 12 343 54 54 53 46 265 213 195 210 222
280 284 285 289 292 293 295 297 297 302 304 307 311 314 309 314 307 326 320 283 271 280 276 265 255 267 256 257 273 289 304 314 338 357 50 2 50 39 22 193 144 126 150
279 284 287 289 290 293 295 297 299 301 298 309 314 316 311 313 321 321 325 275 261 264 263 258 252 249 253 276 248 253 278 286 302 304 323 35 19 96 136 150 155 170 179
279 283 286 289 291 293 293 296 298 301 304 309 314 308 320 322 322 320 313 261 264 251 252 254 247 247 257 249 247 245 250 276 262 277 279 275 221 218 184 176 196 194 197
279 281 287 288 293 293 295 296 301 303 306 312 315 317 316 321 320 318 286 258 247 248 251 250 258 254 245 256 247 249 246 243 254 251 259 265 239 253 221 239 209 222 225
280 279 287 289 292 294 297 299 304 303 310 313 315 316 319 320 313 315 277 256 246 252 250 245 256 251 245 243 247 249 249 248 242 244 245 246 255 252 245 248 241 228 242
283 281 286 290 292 294 299 301 304 306 309 311 313 313 315 312 310 291 277 261 248 240 239 258 243 252 251 241 242 243 247 250 249 248 245 246 244 246 253 252 248 250 251
279 283 287 286 293 294 300 302 304 307 306 312 313 307 309 304 305 288 272 267 262 249 242 249 242 241 254 246 244 241 243 245 248 250 250 248 250 256 249 246 246 249 248
281 285 286 291 295 295 299 301 304 304 308 310 308 303 287 307 280 279 273 267 266 261 241 241 250 245 244 248 248 245 248 245 243 245 249 251 251 252 253 256 251 252 247
280 286 288 291 295 298 300 301 306 305 306 297 299 305 273 274 283 278 277 272 269 266 265 251 241 253 247 245 250 251 245 246 250 248 248 245 246 248 249 249 248 247 244
285 285 288 291 294 298 299 302 302 303 297 299 293 280 283 281 280 279 278 276 273 270 268 263 265 247 242 251 248 252 253 253 248 249 251 249 248 250 249 247 247 248 250
286 289 288 293 295 297 300 301 299 297 297 273 268 272 279 284 284 284 285 284 282 280 275 279 277 265 254 245 244 247 252 248 254 252 250 250 254 253 252 252 252 253 253
289 289 291 292 293 295 292 292 296 287 274 271 271 273 280 282 284 284 286 291 294 293 295 290 296 289 263 259 251 248 244 246 250 255 253 256 253 254 256 262 263 263 262
285 287 292 292 289 291 293 290 265 265 272 273 274 277 276 278 283 287 292 294 297 298 302 298 296 292 283 279 270 255 253 251 249 254 247 250 256 255 257 259 263 267 268
283 284 287 290 291 285 277 268 271 275 276 273 273 276 278 283 286 290 293 293 301 301 295 298 297 291 284 295 288 269 266 259 252 253 253 253 254 256 256 257 259 260 259